[[{"header":{"parameterUnit":"m.s-1","parameterCategory":1,"la1":30.2991,"la2":30.254,"lo1":-89.0895,"lo2":-89.0444,"dy":0.0017,"dx":0.0017,"nx":28,"ny":28,"refTime":"2023-04-17T21:00:00:Z","depth":0,"parameterNumber":2,"parameterNumberName":"U-component_of_WINDS"},"data":[0,0,0,0,0,0,0,0,0,0,0,0,0,0,0,0,0,0,0,0,0,0,0,0,0,0,0,0,0,0,0,0,0,0,0,0,0,0,0,0,0,0,0,0,0,0,0,0,0,0,0,0,0,0,0,0,0,0,-3.8864,-3.8865,0,-3.8926,-3.8927,-3.8928,-3.8883,-3.8881,-3.8879,-3.8877,-3.8942,-3.8945,-3.8949,0,0,0,0,0,0,0,0,0,0,0,0,0,-3.871,-3.8713,-3.8864,-3.8865,-3.8866,-3.8926,-3.8927,-3.8928,-3.8883,-3.888,-3.8878,-3.8876,-3.8941,-3.8945,-3.8949,0,0,0,0,0,0,0,0,0,0,0,0,0,-3.8775,-3.8714,-3.8864,-3.885,-3.885,-3.8926,-3.8927,-3.8928,-3.8883,-3.888,-3.8877,-3.8875,-3.8939,-3.8945,-3.895,-3.9043,0,0,-3.8966,-3.8969,0,0,0,0,0,0,0,0,-3.8771,-3.8781,-3.8852,-3.8851,-3.8851,-3.8894,-3.8896,-3.8967,-3.8884,-3.8871,-3.8877,-3.8873,-3.8928,-3.8935,-3.8953,-3.9046,-3.9049,-3.8967,-3.897,-3.8973,-3.8974,0,0,0,0,0,0,0,-3.8767,-3.8778,-3.8889,-3.8853,-3.8852,-3.8842,-3.8848,-3.891,-3.8916,-3.8872,-3.8868,-3.8876,-3.8928,-3.8948,-3.8954,-3.905,-3.8967,-3.8972,-3.8975,-3.8977,-3.9225,-3.9229,0,0,0,0,0,0,-3.8763,-3.8774,-3.8887,-3.8891,-3.8803,-3.8848,-3.8854,-3.8883,-3.8915,-3.8917,-3.8879,-3.8874,-3.894,-3.8948,-3.8956,-3.9067,-3.8972,-3.8978,-3.8981,-3.9222,-3.9226,-3.923,0,0,0,0,0,0,-3.876,-3.8774,-3.8884,-3.8832,-3.8845,-3.8853,-3.8886,-3.8886,-3.8906,-3.892,-3.8921,-3.8898,-3.8938,-3.8949,-3.9022,-3.9069,-3.898,-3.8985,-3.9218,-3.9223,-3.9228,-3.9291,0,0,0,0,0,0,-3.8756,-3.8773,-3.8807,-3.8833,-3.8848,-3.8948,-3.8889,-3.8889,-3.8915,-3.8909,-3.8938,-3.8941,-3.8936,-3.9014,-3.9028,-3.9075,-3.8989,-3.9214,-3.922,-3.9226,-3.9285,-3.9297,-3.9309,0,0,0,0,0,-3.875,-3.8822,-3.8809,-3.8823,-3.8891,-3.8951,-3.896,-3.8953,-3.8919,-3.8954,-3.8964,-3.894,-3.9063,-3.9022,-3.9037,-3.9086,-3.9211,-3.9218,-3.9226,-3.9279,-3.9295,-3.9308,0,0,0,0,0,0,-3.8801,-3.8825,-3.8811,-3.8893,-3.892,-3.8943,-3.8987,-3.897,-3.9007,-3.9,-3.8991,-3.8998,-3.9076,-3.9089,-3.9044,-3.918,-3.9131,-3.9142,-3.9167,-3.9182,-3.9194,-3.9188,-3.8994,0,0,0,0,0,-3.8823,-3.8868,-3.8887,-3.8958,-3.8973,-3.8978,-3.9004,-3.8997,-3.9025,-3.9036,-3.9051,-3.908,-3.9125,-3.9155,-3.9197,-3.9288,-3.9294,-3.933,-3.9342,-3.9351,-3.936,-3.9409,-3.9425,-3.9254,-3.9254,-3.9254,0,0,-3.8866,-3.8885,-3.8914,-3.8969,-3.8989,-3.9038,-3.8988,-3.9041,-3.9077,-3.9044,-3.9114,-3.9127,-3.9159,-3.9242,-3.9279,-3.9255,-3.9409,-3.9361,-3.9368,-3.9372,-3.9419,-3.9435,-3.9449,-3.926,-3.9259,-3.9258,0,0,-3.8969,-3.8988,-3.9049,-3.9072,-3.9103,-3.9107,-3.9122,-3.9148,-3.9155,-3.9226,-3.9203,-3.9247,-3.9325,-3.9349,-3.9371,-3.9488,-3.9467,-3.9503,-3.9564,-3.9612,-3.9626,-3.9637,-3.9678,-3.9693,-3.9512,-3.9512,-3.9512,0,-3.9019,-3.909,-3.9083,-3.9139,-3.9164,-3.9138,-3.92,-3.9222,-3.9267,-3.9285,-3.9259,-3.9357,-3.9377,-3.9465,-3.9494,-3.9513,-3.953,-3.9497,-3.9624,-3.9636,-3.9647,-3.9686,-3.9702,-3.9516,-3.9516,-3.9515,-3.9515,0,-3.915,-3.92,-3.9246,-3.9289,-3.932,-3.9379,-3.9383,-3.9415,-3.9407,-3.9414,-3.9487,-3.9511,-3.9558,-3.9579,-3.9571,-3.9667,-3.9651,-3.9625,-3.9576,-3.9667,-3.9704,-3.9719,-3.9522,-3.952,-3.9519,-3.9518,0,0,-3.9282,-3.9324,-3.9341,-3.9361,-3.9396,-3.9435,-3.9494,-3.954,-3.9568,-3.9602,-3.9651,-3.9719,-3.9696,-3.9721,-3.9717,-3.976,-3.9851,-3.9728,-3.9729,-3.9749,-3.9958,-3.9976,-3.9993,-3.9839,-3.9842,-3.9844,-3.9955,0,-3.9386,-3.9487,-3.9485,-3.958,-3.9626,-3.9605,-3.9656,-3.9684,-3.9694,-3.9736,-3.9747,-3.9795,-3.9761,-3.9776,-3.9818,-3.9831,-3.9892,-3.9823,-3.9884,-3.9887,-3.9874,-4.0012,-4.0031,-4.0134,-3.9969,-3.9972,-3.9973,0,-3.952,-3.9557,-3.9656,-3.9686,-3.9706,-3.9752,-3.9795,-3.9836,-3.9869,-3.9873,-3.9903,-3.9893,-3.9954,-3.9907,-3.9992,-3.9945,-3.9971,-3.9981,-3.9985,-3.9988,-3.9933,-4.0017,-4.0167,-4.0181,-3.9996,-3.9994,-3.9993,0,-3.9605,-3.9681,-3.975,-3.9768,-3.9805,-3.9838,-3.9856,-3.9885,-3.9914,-3.9953,-3.9971,-4.0017,-4.0042,-4.0079,-4.0081,-4.0046,-4.0168,-4.012,-4.0173,-4.0172,-4.0196,-4.0194,-4.0349,-4.0217,-4.0217,-4.0217,-4.0216,0,-3.972,-3.9781,-3.9789,-3.9831,-3.99,-3.9899,-3.9967,-3.9982,-4.0009,-4.0055,-4.004,-4.0084,-4.0086,-4.0131,-4.0135,-4.0205,-4.0217,-4.0222,-4.0221,-4.0222,-4.0221,-4.0236,-4.0228,-4.0221,-4.022,-4.0219,-4.0218,0,-3.9824,-3.9833,-3.9906,-3.9937,-3.9946,-3.9995,-4.0021,-4.0063,-4.0072,-4.0131,-4.0144,-4.016,-4.0213,-4.022,-4.0282,-4.0285,-4.0369,-4.0362,-4.0357,-4.0355,-4.0407,-4.0401,-4.0576,-4.0598,-4.0453,-4.0455,-4.0456,0,-3.9895,-3.9942,-3.9978,-4.0007,-4.0026,-4.0074,-4.0104,-4.0106,-4.0137,-4.018,-4.0216,-4.0268,-4.0308,-4.0395,-4.0412,-4.046,-4.0453,-4.0511,-4.046,-4.0459,-4.0452,-4.0448,-4.0453,-4.052,-4.0522,-4.0523,-4.0524,0,-4.002,-4.0023,-4.0065,-4.0111,-4.0147,-4.0182,-4.0216,-4.0242,-4.0248,-4.0285,-4.0339,-4.0371,-4.0435,-4.0487,-4.0535,-4.0554,-4.0541,-4.0541,-4.0555,-4.0554,-4.0549,-4.0551,-4.0381,-4.0536,-4.0534,-4.0534,-4.0533,-4.0532,-4.0109,-4.015,-4.0182,-4.0231,-4.0257,-4.029,-4.033,-4.0346,-4.039,-4.0442,-4.0442,-4.0501,-4.0536,-4.0599,-4.0622,-4.0669,-4.065,-4.0671,-4.0676,-4.0681,-4.0685,-4.0544,-4.0678,-4.0678,-4.0678,-4.0678,-4.0677,0,-4.0232,-4.0252,-4.0298,-4.0345,-4.0385,-4.037,-4.0408,-4.0441,-4.0493,-4.0527,-4.0568,-4.0631,-4.0682,-4.0705,-4.0755,-4.0789,-4.0784,-4.0802,-4.0798,-4.0803,-4.07,-4.0682,-4.0805,-4.0805,-4.0805,-4.0805,-4.0805,-4.0805,-4.03,-4.0368,-4.0376,-4.0458,-4.0478,-4.0536,-4.0558,-4.0589,-4.0616,-4.0686,-4.0729,-4.0744,-4.0773,-4.0826,-4.0873,-4.0879,-4.0897,-4.0918,-4.0921,-4.0823,-4.081,-4.0798,-4.078,-4.0922,-4.0923,-4.1019,-4.102,-4.1021]},{"header":{"parameterUnit":"m.s-1","parameterCategory":1,"la1":30.2991,"la2":30.254,"lo1":-89.0895,"lo2":-89.0444,"dy":0.0017,"dx":0.0017,"nx":28,"ny":28,"refTime":"2023-04-17T21:00:00:Z","depth":0,"parameterNumber":3,"parameterNumberName":"V-component_of_WINDS"},"data":[0,0,0,0,0,0,0,0,0,0,0,0,0,0,0,0,0,0,0,0,0,0,0,0,0,0,0,0,0,0,0,0,0,0,0,0,0,0,0,0,0,0,0,0,0,0,0,0,0,0,0,0,0,0,0,0,0,0,3.5467,3.5467,0,3.5473,3.5473,3.5473,3.5507,3.5508,3.5509,3.5509,3.5509,3.5508,3.5507,0,0,0,0,0,0,0,0,0,0,0,0,0,3.5483,3.5482,3.5467,3.5467,3.5467,3.5473,3.5473,3.5473,3.5507,3.5508,3.5509,3.551,3.5509,3.5508,3.5507,0,0,0,0,0,0,0,0,0,0,0,0,0,3.5481,3.5482,3.5467,3.5485,3.5487,3.5473,3.5473,3.5473,3.5506,3.5508,3.5509,3.551,3.551,3.5508,3.5507,3.5474,0,0,3.5504,3.5503,0,0,0,0,0,0,0,0,3.5481,3.548,3.5483,3.5484,3.5486,3.5491,3.5478,3.5473,3.5506,3.5499,3.5509,3.5511,3.5501,3.5501,3.5499,3.5474,3.5474,3.5504,3.5503,3.5502,3.5502,0,0,0,0,0,0,0,3.5481,3.548,3.5469,3.5482,3.5484,3.5492,3.5493,3.5477,3.5493,3.55,3.5502,3.5503,3.5503,3.55,3.5499,3.5474,3.5504,3.5502,3.5502,3.5501,3.5425,3.5423,0,0,0,0,0,0,3.5479,3.548,3.5469,3.5469,3.5487,3.549,3.5492,3.5488,3.5493,3.5495,3.5501,3.5504,3.5502,3.5501,3.5499,3.5462,3.5502,3.5501,3.55,3.5426,3.5424,3.5423,0,0,0,0,0,0,3.5479,3.5478,3.5469,3.5475,3.5475,3.5489,3.5484,3.5487,3.5485,3.5495,3.5497,3.5496,3.5502,3.5501,3.5481,3.5463,3.5501,3.55,3.5427,3.5425,3.5424,3.5387,0,0,0,0,0,0,3.548,3.5478,3.5466,3.5475,3.5474,3.5452,3.5483,3.5486,3.5483,3.5487,3.549,3.5492,3.5503,3.5483,3.548,3.5462,3.5499,3.5429,3.5426,3.5424,3.539,3.5384,3.5379,0,0,0,0,0,3.548,3.5454,3.5465,3.5464,3.5461,3.545,3.545,3.5465,3.5482,3.547,3.5476,3.5492,3.5465,3.548,3.5478,3.5459,3.543,3.5427,3.5424,3.5392,3.5385,3.5379,0,0,0,0,0,0,3.544,3.5455,3.5468,3.5445,3.5446,3.5456,3.5442,3.5457,3.5452,3.5455,3.5472,3.5473,3.545,3.5453,3.5469,3.5428,3.5451,3.5447,3.5427,3.542,3.5415,3.5415,3.5498,0,0,0,0,0,3.5429,3.5421,3.5434,3.5412,3.5413,3.5427,3.5423,3.5435,3.5436,3.5437,3.5442,3.5441,3.5433,3.5427,3.542,3.5391,3.5392,3.5376,3.5371,3.5366,3.5362,3.5348,3.5341,3.5413,3.5413,3.5413,0,0,3.5405,3.5413,3.5406,3.5405,3.5407,3.5398,3.5427,3.5415,3.5408,3.5434,3.5417,3.542,3.5421,3.5397,3.5386,3.5398,3.5343,3.5362,3.5359,3.5357,3.5344,3.5338,3.5331,3.5411,3.5411,3.5412,0,0,3.5357,3.5362,3.5345,3.5348,3.5352,3.5362,3.5358,3.5366,3.5371,3.5354,3.5374,3.5364,3.5349,3.535,3.5348,3.5302,3.5316,3.5299,3.527,3.5255,3.525,3.5245,3.5229,3.5223,3.5295,3.5295,3.5295,0,3.5326,3.5314,3.5333,3.5321,3.532,3.5346,3.5328,3.5329,3.533,3.5328,3.5342,3.5325,3.5327,3.5304,3.5293,3.529,3.5285,3.5298,3.5249,3.5245,3.524,3.5225,3.5219,3.5293,3.5293,3.5293,3.5294,0,3.5276,3.5267,3.5252,3.5256,3.5253,3.5237,3.5254,3.5248,3.5261,3.5269,3.5251,3.5256,3.525,3.5246,3.5256,3.5224,3.5231,3.5247,3.527,3.5231,3.5217,3.5211,3.529,3.5291,3.5291,3.5292,0,0,3.5201,3.5217,3.5211,3.5214,3.5222,3.5214,3.5201,3.5198,3.5193,3.5193,3.5181,3.5169,3.5185,3.5182,3.5194,3.5181,3.5145,3.5199,3.5199,3.5189,3.511,3.5098,3.5091,3.5156,3.5155,3.5154,3.511,0,3.5155,3.5134,3.5152,3.5126,3.5119,3.5144,3.5132,3.5135,3.5143,3.5137,3.5145,3.5136,3.5157,3.5156,3.5145,3.5152,3.513,3.5155,3.5144,3.5143,3.5142,3.5083,3.507,3.5029,3.5104,3.5104,3.5103,0,3.5098,3.5099,3.5073,3.5085,3.5082,3.5071,3.507,3.5064,3.5068,3.5075,3.5074,3.5089,3.5075,3.5099,3.508,3.5097,3.5094,3.5096,3.5095,3.5094,3.512,3.508,3.5016,3.5009,3.5094,3.5095,3.5096,0,3.5046,3.504,3.5025,3.5026,3.5039,3.503,3.5035,3.504,3.5038,3.5037,3.5035,3.5032,3.503,3.5027,3.504,3.5056,3.502,3.5044,3.5024,3.5023,3.5014,3.5014,3.4948,3.5012,3.5012,3.5013,3.5013,0,3.4993,3.4976,3.5002,3.4992,3.4975,3.4995,3.4977,3.4984,3.4989,3.498,3.5002,3.4993,3.5012,3.5005,3.5015,3.4998,3.4997,3.5001,3.5004,3.4999,3.4998,3.4996,3.4999,3.5011,3.5011,3.5012,3.5012,0,3.4931,3.4948,3.4933,3.4947,3.495,3.4937,3.4948,3.4939,3.495,3.4939,3.4937,3.4952,3.4945,3.4959,3.4953,3.496,3.4937,3.4944,3.4936,3.4938,3.4917,3.4918,3.4846,3.4837,3.4908,3.4907,3.4906,0,3.4896,3.4884,3.4898,3.4895,3.4899,3.4893,3.4892,3.4912,3.4909,3.4914,3.4904,3.4899,3.4897,3.4884,3.4894,3.489,3.4897,3.4872,3.4896,3.4892,3.4897,3.4897,3.4896,3.4866,3.4866,3.4865,3.4864,0,3.4832,3.4841,3.4839,3.484,3.4838,3.4839,3.4841,3.4837,3.4858,3.4854,3.4848,3.4846,3.4842,3.4837,3.4836,3.4839,3.4855,3.4857,3.4852,3.4846,3.4842,3.4844,3.4922,3.4858,3.4859,3.4859,3.486,3.486,3.4782,3.4774,3.4782,3.4779,3.4784,3.4786,3.4779,3.479,3.4786,3.4785,3.4797,3.4789,3.4794,3.4794,3.4796,3.4789,3.48,3.4793,3.4791,3.4789,3.4786,3.4844,3.4789,3.4789,3.4789,3.4789,3.4789,0,3.4719,3.4727,3.4724,3.4728,3.4726,3.4743,3.4747,3.4744,3.4737,3.4741,3.4739,3.4733,3.4729,3.4739,3.4736,3.4729,3.4736,3.4727,3.4727,3.4728,3.4776,3.478,3.4721,3.4721,3.4721,3.4721,3.4721,3.4721,3.4686,3.4673,3.4683,3.4672,3.4679,3.4673,3.4674,3.4676,3.468,3.4673,3.467,3.4678,3.4684,3.4682,3.4679,3.4682,3.468,3.4668,3.4674,3.4718,3.4724,3.4731,3.4735,3.4668,3.4668,3.4627,3.4626,3.4626]}]]